When you browse on this site, cookies collect data to enhance your experience and personalize the content and advertising you see.
Visit our Privacy Policy to learn more. By continuing to use the site, you agree to this use of cookies and data.
  • In Slovakia
  • List of Countries
  • For 7 days
  • Water Temperature
  • Satellite Maps
  • Weather Map
  • Weather Widgets
  • user-avatar
    Login

    Hourly Weather Wielgorz

    Today, 20 July, Saturday

    Time Temperature Precipitation Wind Pressure Humidity
    00:00 +17°C° 0 mm 2 mps 747 mmHg 79%
    01:00 +16°C° 0 mm 2 mps 747 mmHg 88%
    02:00 +16°C° 0.1 mm 2 mps 747 mmHg 89%
    03:00 +16°C° 0.1 mm 2 mps 747 mmHg 90%
    04:00 +16°C° 0.1 mm 2 mps 747 mmHg 92%
    05:00 +18°C° 0 mm 2 mps 747 mmHg 86%
    06:00 +19°C° 0 mm 2 mps 748 mmHg 81%
    07:00 +20°C° 0 mm 2 mps 748 mmHg 76%
    08:00 +23°C° 0.5 mm 2 mps 748 mmHg 72%
    09:00 +24°C° 0.5 mm 3 mps 748 mmHg 69%
    10:00 +25°C° 0.5 mm 3 mps 748 mmHg 65%
    11:00 +25°C° 0.6 mm 3 mps 748 mmHg 62%
    12:00 +26°C° 0.6 mm 3 mps 748 mmHg 59%
    13:00 +27°C° 0.6 mm 3 mps 748 mmHg 57%
    14:00 +27°C° 0.8 mm 2 mps 748 mmHg 58%
    15:00 +26°C° 0.8 mm 2 mps 748 mmHg 60%
    16:00 +26°C° 0.8 mm 2 mps 748 mmHg 62%
    17:00 +25°C° 0.5 mm 2 mps 748 mmHg 68%
    18:00 +24°C° 0.5 mm 1 mps 748 mmHg 73%
    19:00 +23°C° 0.5 mm 1 mps 748 mmHg 78%
    20:00 +22°C° 0 mm 1 mps 748 mmHg 80%
    21:00 +21°C° 0 mm 1 mps 748 mmHg 82%
    22:00 +20°C° 0 mm 1 mps 748 mmHg 84%
    23:00 +20°C° 0 mm 1 mps 748 mmHg 85%

    Tomorrow, 21 July, Sunday

    Time Temperature Precipitation Wind Pressure Humidity
    00:00 +19°C° 0 mm 1 mps 748 mmHg 86%
    01:00 +19°C° 0 mm 1 mps 748 mmHg 87%
    02:00 +18°C° 0 mm 2 mps 748 mmHg 88%
    03:00 +17°C° 0 mm 2 mps 748 mmHg 89%
    04:00 +17°C° 0 mm 2 mps 748 mmHg 90%
    05:00 +19°C° 0 mm 2 mps 748 mmHg 85%
    06:00 +21°C° 0 mm 1 mps 748 mmHg 80%
    07:00 +23°C° 0 mm 1 mps 748 mmHg 75%
    08:00 +25°C° 0 mm 2 mps 748 mmHg 69%
    09:00 +26°C° 0 mm 3 mps 748 mmHg 63%
    10:00 +28°C° 0 mm 3 mps 748 mmHg 56%
    11:00 +28°C° 0 mm 3 mps 748 mmHg 55%
    12:00 +29°C° 0 mm 4 mps 747 mmHg 54%
    13:00 +30°C° 0 mm 4 mps 747 mmHg 52%
    14:00 +29°C° 0.9 mm 3 mps 747 mmHg 57%
    15:00 +28°C° 0.9 mm 2 mps 747 mmHg 61%
    16:00 +27°C° 0.9 mm 2 mps 746 mmHg 66%
    17:00 +26°C° 2.4 mm 2 mps 747 mmHg 72%
    18:00 +24°C° 2.4 mm 3 mps 747 mmHg 79%
    19:00 +22°C° 2.4 mm 3 mps 747 mmHg 85%
    20:00 +21°C° 1.5 mm 3 mps 747 mmHg 88%
    21:00 +20°C° 1.5 mm 3 mps 748 mmHg 91%
    22:00 +19°C° 1.5 mm 3 mps 748 mmHg 94%
    23:00 +19°C° 0.1 mm 4 mps 748 mmHg 93%

    Day after tomorrow, 22 July, Monday

    Time Temperature Precipitation Wind Pressure Humidity
    00:00 +19°C° 0.1 mm 4 mps 748 mmHg 93%
    01:00 +17°C° 0.1 mm 5 mps 748 mmHg 92%
    02:00 +17°C° 0 mm 5 mps 748 mmHg 94%
    03:00 +16°C° 0 mm 5 mps 749 mmHg 95%
    04:00 +15°C° 0 mm 4 mps 749 mmHg 96%
    05:00 +16°C° 0 mm 5 mps 749 mmHg 92%
    06:00 +17°C° 0 mm 5 mps 749 mmHg 89%
    07:00 +17°C° 0 mm 6 mps 750 mmHg 85%
    08:00 +17°C° 0 mm 6 mps 750 mmHg 84%
    09:00 +19°C° 0 mm 6 mps 750 mmHg 83%
    10:00 +19°C° 0 mm 6 mps 750 mmHg 82%
    11:00 +19°C° 0.1 mm 6 mps 750 mmHg 78%
    12:00 +20°C° 0.1 mm 6 mps 750 mmHg 74%
    13:00 +21°C° 0.1 mm 6 mps 750 mmHg 70%
    14:00 +21°C° 0 mm 6 mps 750 mmHg 68%
    15:00 +21°C° 0 mm 6 mps 750 mmHg 66%
    16:00 +22°C° 0 mm 6 mps 750 mmHg 64%
    17:00 +21°C° 0 mm 5 mps 750 mmHg 69%
    18:00 +20°C° 0 mm 4 mps 750 mmHg 74%
    19:00 +19°C° 0 mm 3 mps 750 mmHg 79%
    20:00 +17°C° 0 mm 3 mps 750 mmHg 82%
    21:00 +16°C° 0 mm 3 mps 750 mmHg 86%
    22:00 +15°C° 0 mm 2 mps 751 mmHg 90%
    23:00 +14°C° 0 mm 3 mps 751 mmHg 91%

    23 July, Tuesday

    Time Temperature Precipitation Wind Pressure Humidity
    00:00 +13°C° 0 mm 3 mps 750 mmHg 92%
    01:00 +13°C° 0 mm 3 mps 750 mmHg 93%
    02:00 +12°C° 0 mm 3 mps 750 mmHg 94%
    03:00 +12°C° 0 mm 4 mps 750 mmHg 94%
    04:00 +12°C° 0 mm 4 mps 750 mmHg 95%
    05:00 +13°C° 0 mm 4 mps 750 mmHg 91%
    06:00 +15°C° 0 mm 5 mps 750 mmHg 87%
    07:00 +16°C° 0 mm 6 mps 750 mmHg 83%
    08:00 +19°C° 0 mm 6 mps 750 mmHg 77%
    09:00 +21°C° 0 mm 6 mps 750 mmHg 71%
    10:00 +22°C° 0 mm 7 mps 750 mmHg 65%
    11:00 +23°C° 0.3 mm 7 mps 750 mmHg 63%
    12:00 +23°C° 0.3 mm 6 mps 750 mmHg 62%
    13:00 +24°C° 0.3 mm 6 mps 749 mmHg 61%
    14:00 +24°C° 0.1 mm 6 mps 749 mmHg 62%
    15:00 +23°C° 0.1 mm 5 mps 749 mmHg 62%
    16:00 +23°C° 0.1 mm 4 mps 749 mmHg 63%
    17:00 +22°C° 0 mm 4 mps 749 mmHg 68%
    18:00 +21°C° 0 mm 3 mps 749 mmHg 74%
    19:00 +20°C° 0 mm 3 mps 749 mmHg 79%
    20:00 +19°C° 0 mm 3 mps 750 mmHg 83%
    21:00 +18°C° 0 mm 3 mps 750 mmHg 87%
    22:00 +17°C° 0 mm 3 mps 750 mmHg 91%
    23:00 +16°C° 0 mm 3 mps 750 mmHg 91%

    24 July, Wednesday

    Time Temperature Precipitation Wind Pressure Humidity
    00:00 +14°C° 0 mm 3 mps 750 mmHg 92%
    01:00 +13°C° 0 mm 3 mps 750 mmHg 93%
    02:00 +13°C° 0 mm 3 mps 750 mmHg 94%
    03:00 +13°C° 0 mm 3 mps 750 mmHg 94%
    04:00 +12°C° 0 mm 3 mps 750 mmHg 95%
    05:00 +14°C° 0 mm 3 mps 750 mmHg 90%
    06:00 +17°C° 0 mm 3 mps 750 mmHg 85%
    07:00 +18°C° 0 mm 3 mps 751 mmHg 81%
    08:00 +20°C° 0 mm 3 mps 751 mmHg 75%
    09:00 +21°C° 0 mm 3 mps 751 mmHg 70%
    10:00 +24°C° 0 mm 3 mps 751 mmHg 64%
    11:00 +25°C° 0 mm 3 mps 751 mmHg 61%
    12:00 +26°C° 0 mm 3 mps 751 mmHg 57%
    13:00 +26°C° 0 mm 3 mps 751 mmHg 53%
    14:00 +26°C° 0 mm 3 mps 750 mmHg 53%
    15:00 +26°C° 0 mm 3 mps 750 mmHg 53%
    16:00 +26°C° 0 mm 3 mps 750 mmHg 52%
    17:00 +25°C° 0 mm 3 mps 750 mmHg 59%
    18:00 +24°C° 0 mm 2 mps 750 mmHg 65%
    19:00 +21°C° 0 mm 2 mps 750 mmHg 71%
    20:00 +20°C° 0 mm 2 mps 751 mmHg 74%
    21:00 +19°C° 0 mm 2 mps 751 mmHg 77%
    22:00 +18°C° 0 mm 2 mps 751 mmHg 80%
    23:00 +18°C° 0 mm 1 mps 751 mmHg 83%

    25 July, Thursday

    Time Temperature Precipitation Wind Pressure Humidity
    00:00 +18°C° 0 mm 1 mps 751 mmHg 86%
    01:00 +18°C° 0 mm 1 mps 751 mmHg 89%
    02:00 +16°C° 0 mm 1 mps 751 mmHg 90%
    03:00 +16°C° 0 mm 1 mps 751 mmHg 90%
    04:00 +16°C° 0 mm 1 mps 751 mmHg 90%
    05:00 +19°C° 0 mm 1 mps 751 mmHg 85%
    06:00 +19°C° 0 mm 2 mps 752 mmHg 79%
    07:00 +21°C° 0 mm 2 mps 752 mmHg 74%
    08:00 +23°C° 0 mm 2 mps 752 mmHg 69%
    09:00 +25°C° 0 mm 2 mps 752 mmHg 64%
    10:00 +26°C° 0 mm 2 mps 752 mmHg 58%
    11:00 +27°C° 0 mm 3 mps 752 mmHg 57%
    12:00 +27°C° 0 mm 3 mps 752 mmHg 55%
    13:00 +28°C° 0 mm 3 mps 752 mmHg 53%
    14:00 +27°C° 0 mm 3 mps 752 mmHg 54%
    15:00 +27°C° 0 mm 3 mps 752 mmHg 54%
    16:00 +27°C° 0 mm 3 mps 752 mmHg 55%
    17:00 +26°C° 0 mm 3 mps 752 mmHg 60%
    18:00 +25°C° 0 mm 2 mps 752 mmHg 65%
    19:00 +23°C° 0 mm 2 mps 752 mmHg 70%
    20:00 +22°C° 0 mm 1 mps 752 mmHg 71%
    21:00 +21°C° 0 mm 1 mps 752 mmHg 72%
    22:00 +20°C° 0 mm 1 mps 752 mmHg 74%
    23:00 +19°C° 0 mm 1 mps 752 mmHg 74%
    Show more